Change the Weather History Date:

Tuesday, July 23, 2013

  Actual Average Record
Temperature  
Mean Temperature 66 °F -  
Max Temperature 78 °F 80 °F 91 °F (1999)
Min Temperature 53 °F 59 °F 46 °F (2002)
Growing Degree Days 16 (Base 50)    
Moisture  
Dew Point 55 °F    
Average Humidity 68    
Maximum Humidity 94    
Minimum Humidity 39    
Precipitation  
Precipitation 0.00 in - - ()
Sea Level Pressure  
Sea Level Pressure 30.00 in    
Wind  
Wind Speed 5 mph (North)    
Max Wind Speed 9 mph    
Max Gust Speed -    
Visibility 10 miles    
Events      
Averages and records for this station are not official NWS values.
T = Trace of Precipitation, MM = Missing Value Source: NWS Daily Summary

Daily Weather History Graph

Daily Weather History Graph

Search for Another Location

Airport or City:

Trip Planner

Search our weather history database for the weather conditions in past years. The results will help you decide how hot, cold, wet, or windy it might be!

Date:

Astronomy

Jul. 23, 2013 Rise Set
Actual Time 5:59 AM CDT 9:01 PM CDT
Civil Twilight 5:23 AM CDT 9:36 PM CDT
Nautical Twilight 4:38 AM CDT 10:21 PM CDT
Astronomical Twilight 3:44 AM CDT 11:14 PM CDT
Moon 9:22 PM CDT (7/23) 7:15 AM CDT (7/23)
Length of Visible Light 16h 12m
Length of Day
15h 02m
Full, 99% of the Moon is Illuminated
Jul 23
Full
Jul 29
Last Quarter
Aug 6
New
Aug 14
First Quarter
Aug 20
Full

Hourly Weather History & Observations

Time (CDT) Temp. Dew Point Humidity Pressure Visibility Wind Dir Wind Speed Gust Speed Precip Events Conditions
12:13 AM 60.8 °F 55.4 °F 82% 29.93 in 10.0 mi NNW 4.6 mph - N/A   Clear
12:33 AM 60.8 °F 55.4 °F 82% 29.94 in 10.0 mi NNW 5.8 mph - N/A   Clear
12:53 AM 60.8 °F 55.4 °F 82% 29.93 in 10.0 mi NNW 4.6 mph - N/A   Clear
1:13 AM 60.8 °F 55.4 °F 82% 29.93 in 10.0 mi North 6.9 mph - N/A   Clear
1:34 AM 60.8 °F 55.4 °F 82% 29.93 in 10.0 mi North 8.1 mph - N/A   Clear
1:53 AM 60.8 °F 55.4 °F 82% 29.94 in 10.0 mi NNW 5.8 mph - N/A   Clear
2:14 AM 60.8 °F 55.4 °F 82% 29.95 in 10.0 mi NNW 5.8 mph - N/A   Clear
2:33 AM 59.0 °F 55.4 °F 88% 29.95 in 10.0 mi North 6.9 mph - N/A   Clear
2:54 AM 59.0 °F 55.4 °F 88% 29.95 in 10.0 mi NNW 5.8 mph - N/A   Clear
3:14 AM 57.2 °F 55.4 °F 94% 29.95 in 10.0 mi North 6.9 mph - N/A   Clear
3:33 AM 57.2 °F 55.4 °F 94% 29.94 in 10.0 mi North 5.8 mph - N/A   Clear
3:53 AM 57.2 °F 55.4 °F 94% 29.94 in 10.0 mi North 5.8 mph - N/A   Clear
4:13 AM 57.2 °F 53.6 °F 88% 29.95 in 10.0 mi NNW 3.5 mph - N/A   Clear
4:34 AM 57.2 °F 53.6 °F 88% 29.95 in 10.0 mi NNW 3.5 mph - N/A   Clear
4:54 AM 57.2 °F 53.6 °F 88% 29.96 in 10.0 mi NW 3.5 mph - N/A   Clear
5:13 AM 55.4 °F 53.6 °F 94% 29.96 in 10.0 mi Calm Calm - N/A   Clear
5:33 AM 53.6 °F 51.8 °F 94% 29.97 in 10.0 mi NW 4.6 mph - N/A   Clear
5:53 AM 55.4 °F 51.8 °F 88% 29.98 in 10.0 mi NW 5.8 mph - N/A   Clear
6:14 AM 55.4 °F 53.6 °F 94% 30.00 in 10.0 mi WNW 4.6 mph - N/A   Clear
6:33 AM 55.4 °F 53.6 °F 94% 30.00 in 10.0 mi Calm Calm - N/A   Clear
6:53 AM 55.4 °F 53.6 °F 94% 30.01 in 10.0 mi West 3.5 mph - N/A   Clear
7:13 AM 57.2 °F 55.4 °F 94% 30.00 in 10.0 mi NNW 3.5 mph - N/A   Clear
7:33 AM 60.8 °F 55.4 °F 82% 30.00 in 10.0 mi North 4.6 mph - N/A   Clear
7:53 AM 60.8 °F 55.4 °F 82% 30.00 in 10.0 mi North 6.9 mph - N/A   Clear
8:13 AM 62.6 °F 57.2 °F 82% 30.00 in 10.0 mi North 5.8 mph - N/A   Clear
8:33 AM 62.6 °F 57.2 °F 82% 30.00 in 10.0 mi North 5.8 mph - N/A   Clear
8:53 AM 64.4 °F 55.4 °F 73% 30.00 in 10.0 mi NE 6.9 mph - N/A   Clear
9:13 AM 64.4 °F 55.4 °F 73% 30.02 in 10.0 mi North 5.8 mph - N/A   Clear
9:33 AM 66.2 °F 55.4 °F 68% 30.02 in 10.0 mi NNE 6.9 mph - N/A   Clear
9:53 AM 68.0 °F 57.2 °F 68% 30.02 in 10.0 mi NE 4.6 mph - N/A   Clear
10:13 AM 68.0 °F 55.4 °F 64% 30.02 in 10.0 mi NE 5.8 mph - N/A   Clear
10:34 AM 69.8 °F 57.2 °F 64% 30.03 in 10.0 mi ENE 3.5 mph - N/A   Clear
10:53 AM 69.8 °F 55.4 °F 60% 30.03 in 10.0 mi North 4.6 mph - N/A   Clear
11:14 AM 71.6 °F 55.4 °F 57% 30.03 in 10.0 mi East 4.6 mph - N/A   Scattered Clouds
11:33 AM 73.4 °F 51.8 °F 47% 30.03 in 10.0 mi Calm Calm - N/A   Scattered Clouds
11:53 AM 73.4 °F 53.6 °F 50% 30.02 in 10.0 mi ENE 6.9 mph - N/A   Scattered Clouds
12:13 PM 73.4 °F 51.8 °F 47% 30.02 in 10.0 mi ENE 4.6 mph - N/A   Mostly Cloudy
12:34 PM 73.4 °F 51.8 °F 47% 30.02 in 10.0 mi East 8.1 mph - N/A   Scattered Clouds
12:53 PM 73.4 °F 51.8 °F 47% 30.02 in 10.0 mi North 3.5 mph - N/A   Scattered Clouds
1:13 PM 73.4 °F 53.6 °F 50% 30.02 in 10.0 mi North 5.8 mph - N/A   Scattered Clouds
1:33 PM 73.4 °F 53.6 °F 50% 30.02 in 10.0 mi Calm Calm - N/A   Scattered Clouds
1:53 PM 75.2 °F 51.8 °F 44% 30.02 in 10.0 mi NNE 6.9 mph - N/A   Scattered Clouds
2:13 PM 75.2 °F 53.6 °F 47% 30.02 in 10.0 mi NW 4.6 mph - N/A   Scattered Clouds
2:33 PM 75.2 °F 53.6 °F 47% 30.02 in 10.0 mi NE 4.6 mph - N/A   Scattered Clouds
2:53 PM 78.8 °F 53.6 °F 42% 30.01 in 10.0 mi NNE 3.5 mph - N/A   Scattered Clouds
3:13 PM 75.2 °F 53.6 °F 47% 30.02 in 10.0 mi Calm Calm - N/A   Mostly Cloudy
3:33 PM 73.4 °F 51.8 °F 47% 30.02 in 10.0 mi Calm Calm - N/A   Mostly Cloudy
3:53 PM 75.2 °F 53.6 °F 47% 30.02 in 10.0 mi NW 5.8 mph - N/A   Scattered Clouds
4:13 PM 75.2 °F 53.6 °F 47% 30.02 in 10.0 mi NNW 8.1 mph - N/A   Scattered Clouds
4:33 PM 77.0 °F 53.6 °F 44% 30.01 in 10.0 mi WNW 4.6 mph - N/A   Scattered Clouds
4:53 PM 78.8 °F 51.8 °F 39% 30.01 in 10.0 mi NNW 6.9 mph - N/A   Scattered Clouds
5:13 PM 78.8 °F 53.6 °F 42% 30.01 in 10.0 mi NW 9.2 mph - N/A   Clear
5:33 PM 75.2 °F 53.6 °F 47% 30.01 in 10.0 mi NW 8.1 mph - N/A   Clear
5:53 PM 77.0 °F 51.8 °F 41% 30.01 in 10.0 mi North 5.8 mph - N/A   Scattered Clouds
6:13 PM 77.0 °F 51.8 °F 41% 30.01 in 10.0 mi North 9.2 mph - N/A   Mostly Cloudy
6:33 PM 75.2 °F 51.8 °F 44% 30.00 in 10.0 mi North 5.8 mph - N/A   Scattered Clouds
6:53 PM 75.2 °F 53.6 °F 47% 30.00 in 10.0 mi North 5.8 mph - N/A   Clear
7:14 PM 75.2 °F 53.6 °F 47% 30.00 in 10.0 mi North 4.6 mph - N/A   Clear
7:34 PM 75.2 °F 55.4 °F 50% 30.00 in 10.0 mi North 4.6 mph - N/A   Clear
7:53 PM 73.4 °F 55.4 °F 53% 30.00 in 10.0 mi North 4.6 mph - N/A   Clear
8:14 PM 73.4 °F 57.2 °F 57% 30.01 in 10.0 mi Calm Calm - N/A   Clear
8:33 PM 71.6 °F 57.2 °F 60% 30.01 in 10.0 mi North 3.5 mph - N/A   Clear
8:53 PM 69.8 °F 57.2 °F 64% 30.01 in 10.0 mi NNW 3.5 mph - N/A   Clear
9:13 PM 66.2 °F 57.2 °F 73% 30.02 in 10.0 mi NNW 3.5 mph - N/A   Clear
9:33 PM 64.4 °F 57.2 °F 77% 30.03 in 10.0 mi Calm Calm - N/A   Clear
9:53 PM 64.4 °F 57.2 °F 77% 30.03 in 10.0 mi Calm Calm - N/A   Clear
10:13 PM 64.4 °F 57.2 °F 77% 30.04 in 10.0 mi Calm Calm - N/A   Clear
10:33 PM 62.6 °F 57.2 °F 82% 30.03 in 10.0 mi Calm Calm - N/A   Clear
10:53 PM 62.6 °F 57.2 °F 82% 30.03 in 10.0 mi Calm Calm - N/A   Clear
11:13 PM 60.8 °F 55.4 °F 82% 30.03 in 10.0 mi Calm Calm - N/A   Mostly Cloudy
11:33 PM 60.8 °F 57.2 °F 88% 30.02 in 10.0 mi NW 3.5 mph - N/A   Scattered Clouds
11:54 PM 60.8 °F 55.4 °F 82% 30.02 in 10.0 mi Calm Calm - N/A   Clear